Columbus, OH

7:25 AM EST on December 17, 2017 (GMT -0500)
Port Columbus International

Weather History for KCMH - January, 2012

Change the Weather History Date:

Sunday, January 1, 2012

  Actual Average Record
Temperature  
Mean Temperature 44 °F 30 °F  
Max Temperature 55 °F 37 °F 67 °F (1952)
Min Temperature 32 °F 23 °F -6 °F (1968)
Degree Days  
Heating Degree Days 21 35  
Month to date heating degree days 21 35  
Since 1 July heating degree days 1696 2026  
Cooling Degree Days 0 0  
Month to date cooling degree days 0 0  
Year to date cooling degree days 0 0  
Moisture  
Dew Point 33 °F    
Average Humidity 69    
Maximum Humidity 86    
Minimum Humidity 52    
Precipitation  
Precipitation 0.02 in 0.10 in 1.28 in (1948)
Month to date precipitation 0.02 0.10  
Year to date precipitation 0.02 0.10  
Snow  
Snow T in 0.30 in 5.20 in (1964)
Month to date snowfall T 0.3  
Since 1 July snowfall 0.5 6.4  
Snow Depth 0.00 in    
Sea Level Pressure  
Sea Level Pressure 29.87 in    
Wind  
Wind Speed 18 mph (SW)    
Max Wind Speed 43 mph    
Max Gust Speed 48 mph    
Visibility 10 miles    
Events Rain    
T = Trace of Precipitation, MM = Missing Value Source: NWS Daily Summary

Daily Weather History Graph

Daily Weather History Graph

Search for Another Location

Airport or City:

Trip Planner

Search our weather history database for the weather conditions in past years. The results will help you decide how hot, cold, wet, or windy it might be!

Date:

Astronomy

Jan. 01, 2012 Rise Set
Actual Time 7:53 AM EST 5:16 PM EST
Civil Twilight 7:22 AM EST 5:47 PM EST
Nautical Twilight 6:49 AM EST 6:21 PM EST
Astronomical Twilight 6:16 AM EST 6:53 PM EST
Moon 12:04 PM EST (1/1) 12:47 AM EST (1/1)
Length of Visible Light 10h 24m
Length of Day
9h 23m
First Quarter, 54% of the Moon is Illuminated
Jan 1
First Quarter
Jan 9
Full
Jan 16
Last Quarter
Jan 23
New
Jan 30
First Quarter

Hourly Weather History & Observations

Time (EST) Temp. Windchill Dew Point Humidity Pressure Visibility Wind Dir Wind Speed Gust Speed Precip Events Conditions
12:51 AM 39.2 °F 31.6 °F 35.6 °F 87% 29.99 in 9.0 mi SE 12.7 mph - N/A   Clear
1:51 AM 39.2 °F 32.5 °F 35.6 °F 87% 29.96 in 10.0 mi SSE 10.4 mph - N/A   Clear
2:51 AM 39.0 °F 32.3 °F 36.0 °F 89% 29.94 in 10.0 mi SE 10.4 mph - N/A   Clear
3:51 AM 39.9 °F 32.9 °F 36.0 °F 86% 29.90 in 10.0 mi SE 11.5 mph - N/A   Clear
4:51 AM 41.0 °F 33.9 °F 37.0 °F 86% 29.85 in 10.0 mi SE 12.7 mph - N/A   Mostly Cloudy
5:51 AM 43.0 °F 37.2 °F 37.0 °F 80% 29.82 in 10.0 mi SSE 10.4 mph - 0.00 in   Overcast
6:51 AM 45.0 °F 39.7 °F 36.0 °F 71% 29.78 in 10.0 mi South 10.4 mph - N/A   Overcast
7:51 AM 46.9 °F - 37.0 °F 68% 29.76 in 10.0 mi South 13.8 mph - N/A   Overcast
8:51 AM 48.9 °F - 37.9 °F 66% 29.75 in 10.0 mi South 16.1 mph - N/A   Overcast
9:51 AM 50.0 °F - 39.2 °F 66% 29.72 in 10.0 mi South 15.0 mph 23.0 mph N/A   Overcast
10:51 AM 51.1 °F - 42.1 °F 71% 29.72 in 10.0 mi SSW 15.0 mph - N/A   Overcast
11:51 AM 55.0 °F - 46.0 °F 72% 29.69 in 6.0 mi SW 25.3 mph 40.3 mph 0.00 in Rain Light Rain
12:51 PM 46.0 °F 36.1 °F 37.9 °F 73% 29.75 in 10.0 mi West 34.5 mph 48.3 mph 0.02 in   Mostly Cloudy
12:56 PM 46.4 °F 36.5 °F 37.4 °F 71% 29.74 in 10.0 mi West 34.5 mph 48.3 mph N/A   Overcast
1:51 PM 44.6 °F 34.9 °F 35.6 °F 71% 29.77 in 10.0 mi West 28.8 mph 40.3 mph N/A   Overcast
2:36 PM 42.8 °F 32.7 °F 35.6 °F 76% 29.80 in 10.0 mi West 27.6 mph 36.8 mph 0.00 in   Overcast
2:44 PM 42.8 °F 32.9 °F 35.6 °F 76% 29.81 in 10.0 mi West 26.5 mph 34.5 mph 0.00 in Rain Light Rain
2:51 PM 42.1 °F 32.6 °F 34.0 °F 73% 29.83 in 10.0 mi West 23.0 mph 34.5 mph 0.00 in Rain Light Rain
3:51 PM 39.9 °F 31.1 °F 35.1 °F 83% 29.89 in 10.0 mi West 17.3 mph 31.1 mph 0.00 in Rain Light Rain
4:51 PM 39.9 °F 32.5 °F 36.0 °F 86% 29.93 in 10.0 mi WSW 12.7 mph - 0.00 in   Mostly Cloudy
5:07 PM 41.0 °F 31.4 °F 35.6 °F 81% 29.92 in 10.0 mi WSW 21.9 mph 32.2 mph N/A   Mostly Cloudy
5:51 PM 39.0 °F 29.0 °F 30.0 °F 70% 29.96 in 10.0 mi West 20.7 mph 27.6 mph N/A   Scattered Clouds
6:51 PM 37.9 °F 25.5 °F 21.9 °F 53% 29.99 in 10.0 mi West 31.1 mph 42.6 mph N/A   Overcast
7:51 PM 35.1 °F 22.2 °F 21.0 °F 57% 30.03 in 10.0 mi West 27.6 mph 34.5 mph N/A   Mostly Cloudy
8:51 PM 34.0 °F 21.5 °F 19.9 °F 56% 30.05 in 10.0 mi West 24.2 mph 33.4 mph N/A   Overcast
9:51 PM 32.0 °F 21.2 °F 23.0 °F 69% 30.05 in 10.0 mi West 16.1 mph 27.6 mph 0.00 in   Overcast
10:51 PM 32.0 °F 20.5 °F 21.9 °F 66% 30.05 in 10.0 mi West 18.4 mph 24.2 mph N/A   Overcast
11:51 PM 32.0 °F 21.6 °F 21.0 °F 64% 30.04 in 10.0 mi West 15.0 mph 26.5 mph N/A   Overcast